SCP
0 1 1 1 1 2 1 1 1 1 1 1 1 1 1 1 1 2 3 3 4 5 6 6 5 4 3 2 3 2 2 2 2 2 2 1 1 2 2 2 1 2 2 2
1 1 1 1 2 2 1 1 1 1 1 1 1 1 1 1 1 1 2 2 3 4 5 5 5 4 3 3 3 3 3 2 2 2 2 2 2 2 2 2 1 2 2 2
1 1 1 1 1 1 1 1 1 1 1 2 2 2 2 1 1 1 1 2 2 3 4 4 5 4 3 4 4 4 4 3 2 2 2 2 2 2 2 2 2 2 2 2
0 1 1 1 1 1 1 1 1 0 1 2 2 2 2 2 2 2 2 1 2 2 3 4 4 3 4 5 6 5 4 4 4 3 2 2 2 2 2 2 2 2 2 2
1 1 1 1 1 1 1 1 1 0 1 1 2 2 2 3 4 4 3 3 4 4 4 4 4 4 5 6 6 6 5 4 4 3 3 2 2 2 2 2 2 2 2 2
1 1 0 1 1 1 1 1 1 0 0 0 1 2 3 5 6 5 4 6 10 11 9 6 5 6 7 7 6 6 5 5 4 4 3 3 3 3 3 3 2 3 3 3
0 0 0 1 1 1 1 0 1 1 1 1 1 2 4 6 6 5 5 8 14 16 13 10 8 7 8 7 6 5 5 4 4 4 3 3 3 3 3 3 3 3 3 3
0 0 0 1 1 1 1 0 1 1 1 2 3 3 4 6 7 6 5 8 13 15 14 11 9 8 7 6 5 5 5 4 3 3 3 3 2 3 4 4 4 4 4 3
0 0 0 1 1 1 1 1 1 1 1 2 2 3 4 5 7 6 6 8 10 11 12 10 8 7 6 5 5 5 4 4 3 3 2 2 2 2 3 4 5 4 4 3
1 0 0 1 1 1 1 1 1 1 2 1 2 2 2 4 5 5 6 7 8 8 9 8 7 6 5 4 5 5 4 3 3 2 2 2 2 2 3 4 5 5 4 3
1 0 0 1 1 1 1 1 1 2 2 2 2 2 2 2 3 4 4 5 5 6 6 6 5 4 4 4 4 4 4 3 3 3 2 2 1 1 2 3 4 4 3 3
0 0 0 1 1 1 1 1 1 2 3 3 3 3 2 2 2 3 4 4 4 4 5 5 5 4 4 4 4 4 4 4 4 3 3 2 2 1 1 1 1 2 2 2
0 0 0 0 0 1 1 1 1 1 2 3 3 3 2 2 2 3 3 3 3 3 4 4 4 4 4 4 4 4 4 4 4 3 3 2 2 2 1 0 0 0 0 0
0 0 0 0 0 1 1 1 0 1 1 1 2 2 2 1 1 2 3 2 3 3 3 3 3 3 4 4 4 4 3 3 3 3 2 2 2 2 1 0 0 0 0 0
0 0 1 1 1 1 1 0 0 0 0 0 1 1 1 1 1 2 3 3 4 4 3 3 3 3 3 4 4 3 3 2 2 2 2 1 1 1 1 0 0 0 0 0
0 1 1 1 1 1 1 0 0 0 0 0 0 0 0 0 1 2 3 3 3 4 3 3 3 3 3 3 3 2 2 2 1 1 1 1 1 1 0 0 0 0 0 0
1 1 1 1 1 1 0 0 0 0 0 0 0 0 0 0 1 2 2 2 2 2 2 2 2 2 2 2 2 2 1 1 1 1 1 0 0 0 0 0 0 0 0 0
1 1 1 1 0 0 0 0 0 0 0 0 0 0 0 0 1 1 2 1 1 1 1 1 1 2 2 1 1 1 1 1 1 0 0 0 0 0 0 0 0 0 0 0
1 1 1 0 0 0 0 0 0 0 0 0 0 0 0 0 1 1 1 1 0 0 0 0 1 1 1 1 1 2 2 1 1 0 0 0 0 0 0 0 0 0 0 0
0 0 0 0 0 0 0 0 0 0 0 0 0 0 0 0 1 1 0 0 0 0 0 0 1 1 2 1 1 2 2 1 0 0 0 0 0 0 0 0 0 0 0 0
0 0 0 0 0 0 0 0 0 0 0 0 0 0 0 0 1 1 0 0 0 0 1 1 1 1 1 1 1 1 1 1 0 0 0 0 0 0 0 0 0 0 0 1
0 0 0 0 0 0 0 0 0 0 0 0 0 0 0 0 0 0 0 0 0 0 1 1 1 1 1 1 1 1 1 1 0 0 0 0 0 0 0 0 1 1 1 0
0 0 0 0 0 0 0 0 0 0 0 0 0 0 0 0 0 0 0 0 0 0 0 1 0 0 0 0 0 0 0 0 0 0 0 0 0 0 0 1 1 1 0 0
0 0 0 0 0 0 0 0 0 0 0 0 0 0 0 0 0 0 0 0 0 0 0 0 0 0 0 0 0 0 0 0 0 0 0 0 0 0 1 1 1 1 0 0
0 0 0 0 0 0 0 0 0 0 0 0 0 0 0 0 0 0 0 0 0 0 0 0 0 0 0 0 0 0 0 0 0 0 0 0 0 1 1 1 1 0 0 0
0 0 0 0 0 0 0 0 0 0 0 0 0 0 0 0 0 0 0 0 0 0 0 0 0 0 0 0 0 0 0 0 0 0 0 0 0 1 1 0 0 0 0 0
0 0 0 0 0 0 0 0 0 0 0 0 0 0 0 0 0 0 0 0 0 0 0 0 0 0 0 0 0 0 0 0 0 0 0 0 0 1 0 0 0 0 0 0
Wind_Speed
3 2 2 2 1 1 2 5 5 5 5 4 4 5 4 3 3 4 4 3 2 2 1 2 1 1 2 2 2 2 2 3 4 4 4 4 4 4 4 4 5 4 4 4
0 2 3 2 2 1 1 3 5 5 2 2 3 5 4 3 3 4 3 2 1 1 1 1 2 2 1 1 2 2 3 4 4 3 3 4 4 4 4 4 4 4 4 4
2 2 3 2 2 1 2 2 4 4 4 4 4 5 4 2 3 3 2 2 0 1 1 2 2 3 2 2 2 2 2 3 3 3 3 4 4 4 4 4 4 4 4 4
1 1 2 4 1 3 5 3 2 3 4 5 5 4 3 3 3 2 1 2 2 2 1 2 1 1 1 1 1 1 1 2 2 2 3 3 3 4 4 4 4 4 4 4
3 2 2 1 2 1 1 2 2 4 4 4 5 5 3 2 1 2 2 2 3 2 1 1 0 1 1 1 1 0 1 2 2 2 3 3 3 3 4 4 4 4 4 4
3 3 4 4 4 3 4 1 2 2 4 3 4 2 2 1 1 1 1 1 1 1 1 1 1 1 2 1 0 1 2 2 2 2 3 4 4 3 3 3 4 4 4 4
2 2 2 4 6 3 3 4 2 0 2 2 2 4 3 1 1 1 1 1 1 1 1 1 1 1 1 1 2 2 2 2 2 2 3 3 3 3 3 3 3 4 4 4
1 1 3 6 4 2 3 1 1 2 2 3 2 1 1 1 0 1 1 0 0 1 1 1 0 1 1 1 2 1 1 1 2 2 3 2 3 3 3 4 4 4 3 3
2 2 2 3 1 0 2 2 1 1 2 4 3 1 1 1 0 1 1 1 0 0 1 2 1 0 1 2 1 1 1 1 2 2 2 2 3 3 3 3 3 3 3 3
2 0 1 2 3 3 2 1 1 1 2 3 3 2 1 1 1 1 1 1 0 0 1 2 2 1 1 2 1 0 1 2 2 1 2 2 1 2 3 3 3 3 3 4
1 1 1 3 3 3 3 3 2 2 2 3 2 1 1 1 1 1 1 1 0 0 0 2 2 2 2 1 0 0 1 1 2 1 1 1 1 2 3 4 5 5 4 4
3 3 2 3 3 2 2 2 1 1 1 1 1 2 1 1 1 1 1 0 0 0 1 2 2 2 2 2 1 0 1 1 1 1 1 1 1 2 3 3 5 7 7 6
3 2 2 2 1 2 1 2 2 1 0 0 1 1 1 0 1 1 1 0 0 1 1 2 2 3 3 2 1 1 1 2 1 1 1 1 1 1 2 4 4 4 6 6
1 2 1 1 1 2 2 2 3 3 2 1 1 1 1 1 1 1 1 1 1 1 1 2 2 3 4 3 1 1 2 2 2 2 2 2 2 2 2 2 2 3 3 5
1 1 2 0 2 2 2 2 3 3 3 3 2 1 1 2 2 3 2 1 1 1 2 2 3 4 4 2 2 2 2 2 2 2 2 2 2 2 2 3 3 2 2 2
1 1 1 2 1 1 2 2 2 2 2 2 3 3 3 3 3 2 1 1 1 2 3 3 4 4 3 2 2 2 2 3 3 2 2 2 2 2 2 3 3 3 3 3
1 0 0 0 1 1 2 2 2 2 2 2 3 4 3 3 3 2 1 1 1 2 3 3 4 4 2 2 2 2 2 2 3 2 2 2 2 2 2 2 2 3 3 3
2 2 2 1 1 1 2 2 2 2 2 2 3 3 3 2 3 3 3 2 2 3 3 3 3 3 3 2 2 2 2 2 2 2 2 2 2 2 2 2 2 2 2 2
1 0 1 1 1 1 2 2 2 2 2 2 3 3 3 4 4 3 2 2 2 4 5 4 4 3 3 3 3 2 2 2 2 2 2 3 3 2 2 2 3 3 2 1
3 2 2 2 2 1 2 2 2 2 2 3 3 3 3 3 2 2 2 3 4 4 4 4 3 3 3 3 4 2 2 2 2 3 3 3 3 3 2 3 2 2 2 2
3 3 3 3 3 3 3 3 2 2 3 2 2 3 3 3 2 2 2 3 5 4 4 4 3 3 3 3 4 2 2 2 2 2 2 3 3 3 2 3 2 2 2 1
1 2 2 3 3 3 3 3 2 3 3 3 3 2 3 3 3 3 3 4 5 5 3 2 3 4 4 4 2 2 2 2 2 2 2 2 2 2 2 2 2 1 1 2
1 1 2 2 2 3 4 4 4 3 3 3 3 4 4 4 3 2 4 4 3 4 3 3 3 5 5 3 2 2 3 2 2 2 2 2 2 2 2 2 1 1 1 1
1 1 1 2 2 3 4 5 4 4 4 4 4 4 4 3 3 3 3 4 4 4 2 3 3 4 4 2 2 2 2 2 2 2 2 2 2 1 1 1 1 1 0 1
1 2 2 2 2 3 3 4 4 4 4 4 5 4 3 2 3 4 3 3 3 3 2 3 3 3 2 2 2 2 2 2 2 2 1 1 1 1 1 1 0 0 0 0
1 1 2 2 2 2 2 2 3 3 3 3 4 4 4 3 3 3 2 3 3 3 2 2 2 2 1 2 2 2 2 1 1 1 1 1 1 0 0 0 1 1 0 0
2 2 2 2 2 2 2 2 3 3 3 3 3 4 4 3 3 3 3 2 2 2 2 2 1 2 2 2 2 2 1 1 0 1 1 0 0 0 1 1 0 0 1 1
Wind_Direction
203 195 110 97 67 85 137 174 172 185 174 198 172 151 137 117 109 102 92 84 102 124 129 122 131 165 197 202 201 197 191 199 214 215 207 197 192 189 181 181 186 181 179 187
355 108 93 51 13 62 93 117 135 129 162 179 127 112 98 95 103 104 99 87 77 116 121 136 170 194 218 214 203 192 214 219 222 214 208 204 202 192 181 182 182 177 189 194
246 259 33 349 332 85 95 78 147 169 193 145 118 113 128 136 115 113 120 137 157 234 207 206 198 187 197 211 199 193 213 227 216 202 209 211 204 188 187 190 186 185 201 201
181 49 205 237 278 95 101 65 72 125 144 145 142 149 129 117 128 143 163 177 203 228 238 246 215 195 193 174 170 203 232 226 215 201 210 215 202 195 196 192 191 194 203 206
138 170 210 291 349 29 114 53 38 116 126 119 105 82 45 37 97 173 201 192 197 202 207 228 218 187 147 145 186 251 258 236 236 215 211 209 209 214 207 193 195 199 203 200
145 160 207 251 303 307 109 133 333 95 138 139 103 104 249 300 26 12 296 195 176 167 112 88 307 153 141 180 209 251 256 245 244 231 217 217 217 218 209 195 200 199 204 205
139 171 238 296 314 4 133 226 284 90 147 137 156 187 211 237 15 302 280 230 196 155 139 202 211 128 141 177 250 252 252 250 244 233 227 220 214 211 207 197 196 201 206 214
100 159 252 328 15 80 207 217 90 81 102 110 115 138 139 119 53 315 333 291 144 95 328 294 222 157 174 242 266 269 244 247 248 242 241 239 213 216 209 193 192 198 202 219
155 199 268 344 32 157 141 125 136 140 160 131 124 149 150 136 121 303 297 279 299 109 337 324 326 159 202 258 271 313 306 273 271 264 256 234 205 206 208 198 195 198 199 216
86 310 333 8 19 15 41 70 297 158 144 133 150 182 189 180 204 274 288 272 259 79 10 329 316 308 248 260 252 263 296 300 284 283 293 287 226 202 201 204 205 202 205 218
124 255 358 6 355 351 9 21 38 48 102 134 150 182 191 183 188 223 256 273 234 124 290 298 309 293 278 279 285 318 293 296 313 310 292 301 291 250 228 225 212 203 213 211
223 229 189 255 285 343 6 349 339 11 23 47 156 180 159 198 210 203 290 316 11 348 305 308 316 312 291 263 239 233 299 314 312 299 290 289 297 315 304 264 251 232 219 206
213 210 185 233 279 13 2 333 334 327 202 332 355 128 128 187 247 270 285 289 226 247 274 291 300 299 296 275 239 204 243 270 284 287 283 277 277 269 303 314 298 253 233 221
129 92 62 321 325 4 11 4 11 20 34 63 60 45 39 339 293 284 275 258 258 263 282 301 298 294 300 286 249 242 252 260 261 259 264 262 259 257 249 248 274 292 268 233
11 111 193 231 28 15 7 14 18 3 1 7 352 327 313 300 287 280 271 270 333 340 316 312 305 295 299 296 271 254 258 262 265 263 262 258 259 261 259 252 245 256 276 268
349 31 98 90 70 13 353 357 352 321 324 344 327 304 289 281 282 287 298 324 350 327 309 310 302 296 301 303 290 274 270 277 281 279 275 268 266 265 262 254 248 244 242 233
94 38 19 357 315 315 313 306 298 301 314 317 298 297 301 311 311 311 305 293 277 271 280 292 293 299 304 299 285 275 276 282 290 297 283 276 275 275 272 262 252 248 247 233
180 197 198 206 240 292 306 308 313 319 306 290 293 308 307 296 285 270 265 281 309 308 297 287 295 307 310 302 285 268 262 265 274 274 275 281 282 268 264 265 257 256 262 249
39 83 250 258 255 244 262 275 280 283 289 297 294 287 278 271 264 260 266 271 285 289 286 291 301 308 308 311 312 271 255 254 264 270 264 269 277 272 262 262 257 249 241 224
19 12 355 339 333 323 308 308 304 299 295 294 297 298 299 291 271 276 277 266 258 254 268 285 292 292 294 300 308 289 272 258 253 260 258 257 259 261 258 264 262 244 226 206
24 15 12 4 353 351 344 342 339 319 309 307 303 295 294 296 297 292 283 281 278 270 271 272 272 280 288 294 296 290 280 273 266 260 258 254 252 252 257 260 258 241 217 211
7 10 11 4 2 345 331 332 334 329 326 323 316 312 310 306 304 300 283 267 267 274 272 262 266 278 286 290 284 282 281 285 281 274 268 262 253 249 256 258 256 247 212 199
342 -0 5 357 348 324 328 337 334 328 319 313 309 303 290 281 275 275 288 282 276 279 271 260 272 285 287 286 279 276 276 281 285 281 275 269 265 256 257 256 249 244 211 202
322 319 305 305 328 340 333 323 320 317 311 310 306 299 292 295 298 281 261 275 283 280 275 275 281 283 288 284 275 271 271 273 275 276 277 272 267 263 264 271 291 299 248 211
321 322 320 322 323 312 307 315 322 321 320 321 320 317 307 287 280 289 291 288 285 280 282 282 274 279 288 292 283 277 270 274 280 277 268 265 262 260 262 255 276 306 322 186
305 298 288 279 273 282 299 315 316 311 316 317 317 312 309 309 308 305 299 292 288 284 287 293 294 297 298 300 294 286 276 277 289 296 300 295 283 298 313 348 11 338 332 122
343 327 319 318 310 302 300 302 303 302 301 299 302 305 308 312 317 322 320 315 316 318 319 318 314 307 308 319 328 328 314 307 316 314 338 11 75 120 111 93 79 17 55 81